Terug naar catalogus

STARLINK-11391

ActiefCommunicatieVLEO
NORAD 62889·PAYLOAD·🇺🇸 United States

Gelanceerd Feb 4, 2025 vanaf Cape Canaveral Space Force Station

Loading…

Volgende Passages (komende 24 uur)

TLE

VersSource: CelesTrak SupGP

Epoch: Sep 15, 2026, 02:46 UTC

1 62889C 25024L   26258.11576389 -.00022753  00000+0 -17653-3 0  2582
2 62889  43.0001 119.4810 0001734 267.6528 327.8112 15.70875627    11

Volg STARLINK-11391 in realtime met AllMySat

Download on the App Store